Location: La Brionne
(46.1728°N, 1.7849°E)
Time: 03:02:30
(UTC+00:00)

Cosmos 2219 Rocket - Pass Details

Date: 31 October 2021
Orbit: 827 x 848 km, 71.0° (Epoch: 26 November)

Event Time Altitude Azimuth Distance (km) Brightness Sun altitude
Exits shadow 03:15:57 32° 125° (SE) 1,421 3.6 -34.3°
Drops below altitude 10° 03:19:00 10° 139° (SE) 2,465 4.9 -33.7°
Sets 03:21:29 0° 143° (SE) 3,397 5.6 -33.3°
